Unalakleet, AK

12:49 AM AKDT on April 28, 2017 (GMT -0800)
Unalakleet

Weather History for PAUN - May, 2013

Change the Weather History Date:

Tuesday, May 21, 2013

  Actual Average Record
Temperature  
Mean Temperature 40 °F -  
Max Temperature 42 °F 48 °F 77 °F (2002)
Min Temperature 37 °F 32 °F 24 °F (1966)
Degree Days  
Heating Degree Days 26    
Moisture  
Dew Point 35 °F    
Average Humidity 84    
Maximum Humidity 93    
Minimum Humidity 76    
Precipitation  
Precipitation 0.34 in - - ()
Sea Level Pressure  
Sea Level Pressure 30.14 in    
Wind  
Wind Speed 16 mph (East)    
Max Wind Speed 24 mph    
Max Gust Speed 23 mph    
Visibility 10 miles    
Events      
Averages and records for this station are not official NWS values.
T = Trace of Precipitation, MM = Missing Value Source: NWS Daily Summary

Daily Weather History Graph

Daily Weather History Graph

Search for Another Location

Airport or City:

Trip Planner

Search our weather history database for the weather conditions in past years. The results will help you decide how hot, cold, wet, or windy it might be!

Date:

Astronomy

May. 21, 2013 Rise Set
Actual Time 5:11 AM AKDT 12:10 AM AKDT
Civil Twilight 3:12 AM AKDT 2:07 AM AKDT
Nautical Twilight Sun does not set Sun does not set
Astronomical Twilight Sun does not set Sun does not set
Moon 7:17 PM AKDT (5/21) 4:20 AM AKDT (5/21)
Length of Visible Light 22h 55m
Length of Day
18h 59m
Waxing Gibbous, 85% of the Moon is Illuminated
May 21
Waxing Gibbous
May 24
Full
May 31
Last Quarter
Jun 8
New
Jun 16
First Quarter

Hourly Weather History & Observations

Time (AKDT) Temp. Windchill Dew Point Humidity Pressure Visibility Wind Dir Wind Speed Gust Speed Precip Events Conditions
12:16 AM 37.4 °F 28.2 °F 33.8 °F 87% 30.24 in 10.0 mi East 16.1 mph - N/A   Overcast
12:36 AM 37.4 °F 28.5 °F 33.8 °F 87% 30.24 in 10.0 mi East 15.0 mph - N/A   Overcast
12:56 AM 37.4 °F 27.5 °F 32.0 °F 81% 30.23 in 10.0 mi East 18.4 mph - N/A   Overcast
1:16 AM 37.4 °F 28.2 °F 32.0 °F 81% 30.23 in 10.0 mi ESE 16.1 mph - N/A   Overcast
1:36 AM 37.4 °F 28.2 °F 32.0 °F 81% 30.23 in 10.0 mi ESE 16.1 mph - N/A   Overcast
1:56 AM 37.4 °F 28.5 °F 32.0 °F 81% 30.23 in 10.0 mi ESE 15.0 mph - N/A   Overcast
2:16 AM 37.4 °F 27.8 °F 32.0 °F 81% 30.23 in 10.0 mi East 17.3 mph - N/A   Overcast
2:36 AM 37.4 °F 28.2 °F 32.0 °F 81% 30.23 in 10.0 mi ESE 16.1 mph - N/A   Overcast
2:56 AM 39.2 °F 30.8 °F 33.8 °F 81% 30.23 in 10.0 mi ESE 15.0 mph - N/A   Overcast
3:16 AM 37.4 °F 28.9 °F 33.8 °F 87% 30.23 in 10.0 mi ESE 13.8 mph - N/A   Overcast
3:36 AM 37.4 °F 29.8 °F 33.8 °F 87% 30.22 in 10.0 mi SE 11.5 mph - 0.01 in   Overcast
3:56 AM 39.2 °F 30.8 °F 33.8 °F 81% 30.22 in 10.0 mi SE 15.0 mph - 0.01 in   Overcast
4:16 AM 37.4 °F 29.3 °F 33.8 °F 87% 30.22 in 10.0 mi ESE 12.7 mph 18.4 mph N/A   Overcast
4:36 AM 37.4 °F 29.3 °F 33.8 °F 87% 30.22 in 10.0 mi SE 12.7 mph 18.4 mph 0.01 in   Overcast
4:56 AM 37.4 °F 29.8 °F 33.8 °F 87% 30.22 in 10.0 mi SE 11.5 mph - 0.02 in   Overcast
5:16 AM 37.4 °F 29.3 °F 33.8 °F 87% 30.22 in 10.0 mi ESE 12.7 mph - 0.02 in   Overcast
5:36 AM 37.4 °F 30.3 °F 33.8 °F 87% 30.22 in 10.0 mi ESE 10.4 mph - 0.04 in   Overcast
5:56 AM 37.4 °F 28.5 °F 33.8 °F 87% 30.21 in 10.0 mi East 15.0 mph - 0.06 in   Overcast
6:16 AM 37.4 °F 28.5 °F 33.8 °F 87% 30.21 in 10.0 mi East 15.0 mph 18.4 mph 0.01 in   Overcast
6:36 AM 37.4 °F 28.9 °F 33.8 °F 87% 30.21 in 10.0 mi ESE 13.8 mph - 0.03 in   Overcast
6:56 AM 37.4 °F 29.8 °F 33.8 °F 87% 30.20 in 10.0 mi East 11.5 mph - 0.04 in   Overcast
7:16 AM 37.4 °F 28.9 °F 33.8 °F 87% 30.20 in 10.0 mi East 13.8 mph - 0.01 in   Overcast
7:36 AM 37.4 °F 29.8 °F 33.8 °F 87% 30.20 in 10.0 mi East 11.5 mph - 0.01 in   Overcast
7:56 AM 37.4 °F 28.2 °F 33.8 °F 87% 30.20 in 9.0 mi East 16.1 mph - 0.02 in   Overcast
8:16 AM 37.4 °F 28.9 °F 33.8 °F 87% 30.20 in 10.0 mi ESE 13.8 mph - 0.01 in   Overcast
8:36 AM 37.4 °F 28.5 °F 33.8 °F 87% 30.19 in 10.0 mi East 15.0 mph - 0.03 in   Overcast
8:56 AM 37.4 °F 28.5 °F 35.6 °F 93% 30.18 in 9.0 mi East 15.0 mph - 0.04 in   Overcast
9:16 AM 37.4 °F 27.8 °F 35.6 °F 93% 30.18 in 10.0 mi East 17.3 mph - 0.01 in   Overcast
9:36 AM 37.4 °F 27.2 °F 35.6 °F 93% 30.18 in 10.0 mi East 19.6 mph - 0.02 in   Overcast
9:56 AM 37.4 °F 27.5 °F 35.6 °F 93% 30.17 in 10.0 mi East 18.4 mph - 0.03 in   Overcast
10:16 AM 37.4 °F 28.2 °F 35.6 °F 93% 30.17 in 10.0 mi East 16.1 mph - N/A   Overcast
10:36 AM 39.2 °F 30.2 °F 35.6 °F 87% 30.17 in 10.0 mi East 17.3 mph - N/A   Overcast
10:56 AM 39.2 °F 29.8 °F 35.6 °F 87% 30.16 in 10.0 mi ESE 18.4 mph - N/A   Overcast
11:16 AM 39.2 °F 30.2 °F 35.6 °F 87% 30.16 in 10.0 mi East 17.3 mph - N/A   Overcast
11:36 AM 39.2 °F 30.8 °F 35.6 °F 87% 30.15 in 10.0 mi East 15.0 mph - N/A   Overcast
11:56 AM 39.2 °F 29.8 °F 35.6 °F 87% 30.15 in 10.0 mi East 18.4 mph 23.0 mph N/A   Overcast
12:16 PM 39.2 °F 30.5 °F 35.6 °F 87% 30.15 in 10.0 mi ESE 16.1 mph - N/A   Overcast
12:36 PM 39.2 °F 29.0 °F 35.6 °F 87% 30.13 in 10.0 mi ESE 21.9 mph - N/A   Overcast
12:56 PM 39.2 °F 29.8 °F 35.6 °F 87% 30.14 in 10.0 mi ESE 18.4 mph - N/A   Overcast
1:16 PM 39.2 °F 29.8 °F 35.6 °F 87% 30.14 in 10.0 mi East 18.4 mph - 0.01 in   Overcast
1:36 PM 39.2 °F 28.5 °F 35.6 °F 87% 30.13 in 10.0 mi East 24.2 mph - 0.01 in   Overcast
1:56 PM 39.2 °F 28.7 °F 35.6 °F 87% 30.12 in 10.0 mi ENE 23.0 mph - 0.01 in   Overcast
2:16 PM 41.0 °F 33.5 °F 35.6 °F 81% 30.13 in 10.0 mi East 13.8 mph - N/A   Overcast
2:36 PM 41.0 °F 33.1 °F 35.6 °F 81% 30.13 in 10.0 mi East 15.0 mph 23.0 mph N/A   Overcast
2:56 PM 42.8 °F 35.8 °F 35.6 °F 76% 30.13 in 10.0 mi East 13.8 mph - N/A   Overcast
3:16 PM 41.0 °F 32.5 °F 35.6 °F 81% 30.13 in 10.0 mi East 17.3 mph 20.7 mph N/A   Overcast
3:36 PM 42.8 °F 34.8 °F 37.4 °F 81% 30.12 in 10.0 mi East 17.3 mph - N/A   Overcast
3:56 PM 41.0 °F 32.8 °F 35.6 °F 81% 30.12 in 10.0 mi East 16.1 mph - 0.01 in   Overcast
4:16 PM 41.0 °F 35.2 °F 35.6 °F 81% 30.12 in 10.0 mi SE 9.2 mph - N/A   Overcast
4:36 PM 41.0 °F 32.8 °F 35.6 °F 81% 30.11 in 10.0 mi ESE 16.1 mph - N/A   Overcast
4:56 PM 42.8 °F 35.1 °F 37.4 °F 81% 30.10 in 10.0 mi ESE 16.1 mph - 0.01 in   Overcast
5:16 PM 42.8 °F 35.4 °F 37.4 °F 81% 30.10 in 10.0 mi East 15.0 mph - N/A   Overcast
5:36 PM 42.8 °F 35.8 °F 37.4 °F 81% 30.10 in 10.0 mi East 13.8 mph - N/A   Overcast
5:56 PM 42.8 °F 35.1 °F 37.4 °F 81% 30.09 in 10.0 mi East 16.1 mph 20.7 mph N/A   Overcast
6:16 PM 42.8 °F 35.4 °F 37.4 °F 81% 30.08 in 10.0 mi ESE 15.0 mph - N/A   Overcast
6:36 PM 42.8 °F 35.1 °F 37.4 °F 81% 30.08 in 10.0 mi East 16.1 mph - N/A   Overcast
6:56 PM 42.8 °F 35.1 °F 37.4 °F 81% 30.07 in 10.0 mi East 16.1 mph - N/A   Overcast
7:16 PM 42.8 °F 35.4 °F 37.4 °F 81% 30.06 in 10.0 mi East 15.0 mph - N/A   Overcast
7:36 PM 42.8 °F 35.1 °F 37.4 °F 81% 30.06 in 10.0 mi East 16.1 mph 19.6 mph N/A   Overcast
7:56 PM 42.8 °F 34.8 °F 37.4 °F 81% 30.05 in 10.0 mi East 17.3 mph - N/A   Overcast
8:16 PM 42.8 °F 34.8 °F 37.4 °F 81% 30.05 in 10.0 mi East 17.3 mph - N/A   Overcast
8:36 PM 42.8 °F 34.8 °F 37.4 °F 81% 30.05 in 10.0 mi East 17.3 mph - 0.01 in   Overcast
8:56 PM 42.8 °F 35.4 °F 37.4 °F 81% 30.05 in 10.0 mi East 15.0 mph - 0.01 in   Overcast
9:16 PM 42.8 °F 35.4 °F 37.4 °F 81% 30.04 in 10.0 mi East 15.0 mph - 0.01 in   Overcast
9:36 PM 42.8 °F 35.1 °F 37.4 °F 81% 30.04 in 10.0 mi East 16.1 mph - 0.02 in   Overcast
9:56 PM 42.8 °F 35.4 °F 37.4 °F 81% 30.04 in 10.0 mi East 15.0 mph - 0.02 in   Overcast
10:16 PM 42.8 °F 35.8 °F 37.4 °F 81% 30.04 in 8.0 mi ENE 13.8 mph - 0.01 in   Overcast
10:36 PM 41.0 °F 33.5 °F 35.6 °F 81% 30.04 in 8.0 mi East 13.8 mph - 0.03 in   Overcast
10:56 PM 41.0 °F 33.1 °F 35.6 °F 81% 30.03 in 8.0 mi ENE 15.0 mph - 0.04 in   Overcast
11:16 PM 41.0 °F 33.9 °F 35.6 °F 81% 30.03 in 10.0 mi ENE 12.7 mph - 0.01 in   Overcast
11:36 PM 41.0 °F 33.9 °F 35.6 °F 81% 30.02 in 10.0 mi ENE 12.7 mph - 0.01 in   Overcast
11:56 PM 41.0 °F 33.1 °F 35.6 °F 81% 30.02 in 10.0 mi East 15.0 mph - 0.02 in   Overcast